Home > Weather > Yokohama > Past weeks

Flag for Japan Past Weather in Yokohama, Japan — Yesterday and Last 2 Weeks

Now
75 °F

Partly cloudy.


Feels Like: 75 °F
Forecast: 75 / 84 °F
Wind: 7 mph from South

Location: Tokyo International Airport

Current Time: Jul 28, 2016 at 2:24:44 AM

Latest Report: Jul 28, 2016 at 2:00 AM


Visibility: N/A

Pressure: 29.86 "Hg

Humidity: 89%

Dew Point: 72 °F

Location of YokohamaLocation

Past Weather in Yokohama — Graph

°F

Yokohama Temperature Yesterday

Maximum temperature yesterday: 81 °F (at 12:00 PM)
Minimum temperature yesterday: 73 °F (at 12:00 AM)
Average temperature yesterday: 77 °F

High & Low Weather Summary for the Past Weeks

 TemperatureHumidityPressure
High88 °F (Jul 14, 2:00 PM)100% (Jul 14, 2:00 AM)29.98 "Hg (Jul 14, 2:00 AM)
Low70 °F (Jul 16, 5:00 AM)62% (Jul 19, 2:30 PM)29.33 "Hg (Jul 14, 2:30 PM)
Average77 °F85%29.78 "Hg
* Reported Jul 13 1:00 AM — Jul 28 1:00 AM, Yokohama, Weather by CustomWeather, © 2016

Note: Actual official high and low records may vary slightly from our data, if they occured in-between our weather recording intervals... More about our weather records

Advertising

Yokohama Weather History for the Previous 24 Hours

Scroll right to see more
 ConditionsComfort  
Time TempWeatherWind HumidityBarometerVisibility
1:00 AM
Thu, Jul 28
75 °FPartly cloudy.10 mph89%29.86 "HgN/A
12:30 AM77 °FPartly cloudy.9 mph83%29.86 "HgN/A
12:00 AM75 °FPassing clouds.8 mph89%29.86 "HgN/A
11:30 PM
Wed, Jul 27
75 °FPartly cloudy.8 mph83%29.89 "HgN/A
11:00 PM75 °FPassing clouds.9 mph83%29.89 "HgN/A
10:30 PM75 °FPartly cloudy.12 mph89%29.89 "HgN/A
10:00 PM75 °FPartly cloudy.10 mph83%29.89 "HgN/A
9:30 PM75 °FPartly cloudy.9 mph83%29.89 "HgN/A
9:00 PM75 °FPassing clouds.7 mph89%29.89 "HgN/A
8:30 PM77 °FPartly cloudy.8 mph83%29.89 "HgN/A
8:00 PM77 °FPartly cloudy.9 mph83%29.86 "HgN/A
7:30 PM75 °FPartly cloudy.9 mph83%29.86 "HgN/A
7:00 PM77 °FPartly cloudy.10 mph83%29.86 "HgN/A
6:30 PM77 °FPartly sunny.13 mph79%29.83 "HgN/A
6:00 PM77 °FBroken clouds.13 mph83%29.83 "HgN/A
5:30 PM77 °FPartly sunny.13 mph83%29.83 "HgN/A
5:00 PM79 °FPartly sunny.16 mph79%29.83 "HgN/A
4:30 PM79 °FPartly sunny.14 mph79%29.83 "HgN/A
4:00 PM79 °FBroken clouds.12 mph79%29.83 "HgN/A
3:30 PM79 °FPartly sunny.17 mph74%29.83 "HgN/A
3:00 PM81 °FPartly sunny.17 mph74%29.83 "HgN/A
2:30 PM79 °FPartly sunny.15 mph79%29.83 "HgN/A
2:00 PM79 °FPartly sunny.16 mph74%29.83 "HgN/A
1:30 PM79 °FPartly sunny.17 mph79%29.83 "HgN/A
1:00 PM79 °FPartly sunny.17 mph74%29.83 "HgN/A
12:30 PM81 °FBroken clouds.15 mph70%29.83 "HgN/A
12:00 PM81 °FBroken clouds.15 mph70%29.83 "HgN/A
11:30 AM79 °FBroken clouds.16 mph74%29.83 "HgN/A
11:00 AM77 °FPartly sunny.16 mph79%29.83 "HgN/A
10:30 AM77 °FBroken clouds.14 mph83%29.86 "HgN/A
10:00 AM79 °FBroken clouds.13 mph74%29.86 "HgN/A
9:30 AM77 °FBroken clouds.12 mph79%29.86 "HgN/A
9:00 AM75 °FBroken clouds.13 mph89%29.83 "HgN/A
8:30 AM75 °FBroken clouds.13 mph83%29.83 "HgN/A
8:00 AM75 °FScattered showers. Broken clouds.13 mph83%29.83 "HgN/A
7:30 AM75 °FBroken clouds.13 mph83%29.86 "HgN/A
7:00 AM75 °FBroken clouds.9 mph83%29.83 "HgN/A
6:30 AM75 °FPartly sunny.12 mph89%29.83 "HgN/A
6:00 AM73 °FBroken clouds.12 mph94%29.83 "HgN/A
5:30 AM73 °FLight rain. Partly sunny.14 mph94%29.83 "HgN/A
5:00 AM75 °FLight rain. Broken clouds.13 mph89%29.83 "HgN/A
4:30 AM75 °FPartly cloudy.9 mph89%29.83 "HgN/A
4:00 AM75 °FPassing clouds.15 mph89%29.80 "HgN/A
3:30 AM75 °FPartly cloudy.14 mph94%29.80 "HgN/A
3:00 AM75 °FLight rain. Partly cloudy.12 mph89%29.80 "HgN/A
2:30 AM75 °FLight rain. Passing clouds.12 mph89%29.80 "HgN/A
2:00 AM75 °FLight rain. Passing clouds.12 mph89%29.80 "HgN/A
Weather by CustomWeather, © 2016

See weather overviewHow to use our weather pages